"Time","Value","Approval","myLocation"
"2023-05-07 00:00",1.61329742907801,"Approved","OW475"
"2023-05-07 01:00",1.61329798315603,"Approved","OW475"
"2023-05-07 02:00",1.61529853723404,"Approved","OW475"
"2023-05-07 03:00",1.61629909131206,"Approved","OW475"
"2023-05-07 04:00",1.61829964539007,"Approved","OW475"
"2023-05-07 05:00",1.62130019946809,"Approved","OW475"
"2023-05-07 06:00",1.6233007535461,"Approved","OW475"
"2023-05-07 07:00",1.62430130762411,"Approved","OW475"
"2023-05-07 08:00",1.62730186170213,"Approved","OW475"
"2023-05-07 09:00",1.62930241578014,"Approved","OW475"
"2023-05-07 10:00",1.63130296985816,"Approved","OW475"
"2023-05-07 11:00",1.63430352393617,"Approved","OW475"
"2023-05-07 12:00",1.63530407801418,"Approved","OW475"
"2023-05-07 13:00",1.6373046320922,"Approved","OW475"
"2023-05-07 14:00",1.63930518617021,"Approved","OW475"
"2023-05-07 15:00",1.64030574024823,"Approved","OW475"
"2023-05-07 16:00",1.64130629432624,"Approved","OW475"
"2023-05-07 17:00",1.64330684840426,"Approved","OW475"
"2023-05-07 18:00",1.64430740248227,"Approved","OW475"
"2023-05-07 19:00",1.64630795656028,"Approved","OW475"
"2023-05-07 20:00",1.6483085106383,"Approved","OW475"
"2023-05-07 21:00",1.64830906471631,"Approved","OW475"
"2023-05-07 22:00",1.65030961879433,"Approved","OW475"
"2023-05-07 23:00",1.65031017287234,"Approved","OW475"
"2023-05-08 00:00",1.65131072695035,"Approved","OW475"
"2023-05-08 01:00",1.65231128102837,"Approved","OW475"
"2023-05-08 02:00",1.65431183510638,"Approved","OW475"
"2023-05-08 03:00",1.6563123891844,"Approved","OW475"
"2023-05-08 04:00",1.65831294326241,"Approved","OW475"
"2023-05-08 05:00",1.66131349734043,"Approved","OW475"
"2023-05-08 06:00",1.66331405141844,"Approved","OW475"
"2023-05-08 07:00",1.66631460549645,"Approved","OW475"
"2023-05-08 08:00",1.66831515957447,"Approved","OW475"
"2023-05-08 09:00",1.67131571365248,"Approved","OW475"
"2023-05-08 10:00",1.6733162677305,"Approved","OW475"
"2023-05-08 11:00",1.67531682180851,"Approved","OW475"
"2023-05-08 12:00",1.67631737588652,"Approved","OW475"
"2023-05-08 13:00",1.67831792996454,"Approved","OW475"
"2023-05-08 14:00",1.67931848404255,"Approved","OW475"
"2023-05-08 15:00",1.67931903812057,"Approved","OW475"
"2023-05-08 16:00",1.68131959219858,"Approved","OW475"
"2023-05-08 17:00",1.6803201462766,"Approved","OW475"
"2023-05-08 18:00",1.68132070035461,"Approved","OW475"
"2023-05-08 19:00",1.68132125443262,"Approved","OW475"
"2023-05-08 20:00",1.68132180851064,"Approved","OW475"
"2023-05-08 21:00",1.68032236258865,"Approved","OW475"
"2023-05-08 22:00",1.68032291666667,"Approved","OW475"
"2023-05-08 23:00",1.68132347074468,"Approved","OW475"
"2023-05-09 00:00",1.68232402482269,"Approved","OW475"
"2023-05-09 01:00",1.68332457890071,"Approved","OW475"
"2023-05-09 02:00",1.68532513297872,"Approved","OW475"
"2023-05-09 03:00",1.68732568705674,"Approved","OW475"
"2023-05-09 04:00",1.68932624113475,"Approved","OW475"
"2023-05-09 05:00",1.69132679521277,"Approved","OW475"
"2023-05-09 06:00",1.69532734929078,"Approved","OW475"
"2023-05-09 07:00",1.69732790336879,"Approved","OW475"
"2023-05-09 08:00",1.69932845744681,"Approved","OW475"
"2023-05-09 09:00",1.70232901152482,"Approved","OW475"
"2023-05-09 10:00",1.70532956560284,"Approved","OW475"
"2023-05-09 11:00",1.70733011968085,"Approved","OW475"
"2023-05-09 12:00",1.70933067375887,"Approved","OW475"
"2023-05-09 13:00",1.71133122783688,"Approved","OW475"
"2023-05-09 14:00",1.71333178191489,"Approved","OW475"
"2023-05-09 15:00",1.71633233599291,"Approved","OW475"
"2023-05-09 16:00",1.71733289007092,"Approved","OW475"
"2023-05-09 17:00",1.71833344414894,"Approved","OW475"
"2023-05-09 18:00",1.72033399822695,"Approved","OW475"
"2023-05-09 19:00",1.72333455230496,"Approved","OW475"
"2023-05-09 20:00",1.72433510638298,"Approved","OW475"
"2023-05-09 21:00",1.72533566046099,"Approved","OW475"
"2023-05-09 22:00",1.72633621453901,"Approved","OW475"
"2023-05-09 23:00",1.72733676861702,"Approved","OW475"
"2023-05-10 00:00",1.72733732269504,"Approved","OW475"
"2023-05-10 01:00",1.72733787677305,"Approved","OW475"
"2023-05-10 02:00",1.72833843085106,"Approved","OW475"
"2023-05-10 03:00",1.72933898492908,"Approved","OW475"
"2023-05-10 04:00",1.73033953900709,"Approved","OW475"
"2023-05-10 05:00",1.73234009308511,"Approved","OW475"
"2023-05-10 06:00",1.73234064716312,"Approved","OW475"
"2023-05-10 07:00",1.73234120124113,"Approved","OW475"
"2023-05-10 08:00",1.73434175531915,"Approved","OW475"
"2023-05-10 09:00",1.73434230939716,"Approved","OW475"
"2023-05-10 10:00",1.73534286347518,"Approved","OW475"
"2023-05-10 11:00",1.73634341755319,"Approved","OW475"
"2023-05-10 12:00",1.73634397163121,"Approved","OW475"
"2023-05-10 13:00",1.73534452570922,"Approved","OW475"
"2023-05-10 14:00",1.73534507978723,"Approved","OW475"
"2023-05-10 15:00",1.73434563386525,"Approved","OW475"
"2023-05-10 16:00",1.73334618794326,"Approved","OW475"
"2023-05-10 17:00",1.73334674202128,"Approved","OW475"
"2023-05-10 18:00",1.73334729609929,"Approved","OW475"
"2023-05-10 19:00",1.7333478501773,"Approved","OW475"
"2023-05-10 20:00",1.73234840425532,"Approved","OW475"
"2023-05-10 21:00",1.73134895833333,"Approved","OW475"
"2023-05-10 22:00",1.73034951241135,"Approved","OW475"
"2023-05-10 23:00",1.72835006648936,"Approved","OW475"
"2023-05-11 00:00",1.72735062056738,"Approved","OW475"
"2023-05-11 01:00",1.72735117464539,"Approved","OW475"
"2023-05-11 02:00",1.7263517287234,"Approved","OW475"
"2023-05-11 03:00",1.72735228280142,"Approved","OW475"
"2023-05-11 04:00",1.72935283687943,"Approved","OW475"
"2023-05-11 05:00",1.73035339095745,"Approved","OW475"
"2023-05-11 06:00",1.73135394503546,"Approved","OW475"
"2023-05-11 07:00",1.73335449911348,"Approved","OW475"
"2023-05-11 08:00",1.73435505319149,"Approved","OW475"
"2023-05-11 09:00",1.7353556072695,"Approved","OW475"
"2023-05-11 10:00",1.73735616134752,"Approved","OW475"
"2023-05-11 11:00",1.73735671542553,"Approved","OW475"
"2023-05-11 12:00",1.73835726950355,"Approved","OW475"
"2023-05-11 13:00",1.73835782358156,"Approved","OW475"
"2023-05-11 14:00",1.73835837765957,"Approved","OW475"
"2023-05-11 15:00",1.73835893173759,"Approved","OW475"
"2023-05-11 16:00",1.7383594858156,"Approved","OW475"
"2023-05-11 17:00",1.73636003989362,"Approved","OW475"
"2023-05-11 18:00",1.73536059397163,"Approved","OW475"
"2023-05-11 19:00",1.73336114804965,"Approved","OW475"
"2023-05-11 20:00",1.73136170212766,"Approved","OW475"
"2023-05-11 21:00",1.73036225620567,"Approved","OW475"
"2023-05-11 22:00",1.72936281028369,"Approved","OW475"
"2023-05-11 23:00",1.7283633643617,"Approved","OW475"
"2023-05-12 00:00",1.72836391843972,"Approved","OW475"
"2023-05-12 01:00",1.72836447251773,"Approved","OW475"
"2023-05-12 02:00",1.72836502659574,"Approved","OW475"
"2023-05-12 03:00",1.72836558067376,"Approved","OW475"
"2023-05-12 04:00",1.72936613475177,"Approved","OW475"
"2023-05-12 05:00",1.73136668882979,"Approved","OW475"
"2023-05-12 06:00",1.7323672429078,"Approved","OW475"
"2023-05-12 07:00",1.73436779698582,"Approved","OW475"
"2023-05-12 08:00",1.73536835106383,"Approved","OW475"
"2023-05-12 09:00",1.73836890514184,"Approved","OW475"
"2023-05-12 10:00",1.73936945921986,"Approved","OW475"
"2023-05-12 11:00",1.74137001329787,"Approved","OW475"
"2023-05-12 12:00",1.74337056737589,"Approved","OW475"
"2023-05-12 13:00",1.7453711214539,"Approved","OW475"
"2023-05-12 14:00",1.74537167553192,"Approved","OW475"
"2023-05-12 15:00",1.74637222960993,"Approved","OW475"
"2023-05-12 16:00",1.74637278368794,"Approved","OW475"
"2023-05-12 17:00",1.74637333776596,"Approved","OW475"
"2023-05-12 18:00",1.74537389184397,"Approved","OW475"
"2023-05-12 19:00",1.74437444592199,"Approved","OW475"
"2023-05-12 20:00",1.743375,"Approved","OW475"
"2023-05-12 21:00",1.74137555407801,"Approved","OW475"
"2023-05-12 22:00",1.74037610815603,"Approved","OW475"
"2023-05-12 23:00",1.73837666223404,"Approved","OW475"
"2023-05-13 00:00",1.73837721631206,"Approved","OW475"
"2023-05-13 01:00",1.73837777039007,"Approved","OW475"
"2023-05-13 02:00",1.73937832446809,"Approved","OW475"
"2023-05-13 03:00",1.7393788785461,"Approved","OW475"
"2023-05-13 04:00",1.74137943262411,"Approved","OW475"
"2023-05-13 05:00",1.74337998670213,"Approved","OW475"
"2023-05-13 06:00",1.74438054078014,"Approved","OW475"
"2023-05-13 07:00",1.74538109485816,"Approved","OW475"
"2023-05-13 08:00",1.74538164893617,"Approved","OW475"
"2023-05-13 09:00",1.74738220301418,"Approved","OW475"
"2023-05-13 10:00",1.7483827570922,"Approved","OW475"
"2023-05-13 11:00",1.74838331117021,"Approved","OW475"
"2023-05-13 12:00",1.74938386524823,"Approved","OW475"
"2023-05-13 13:00",1.75038441932624,"Approved","OW475"
"2023-05-13 14:00",1.74938497340426,"Approved","OW475"
"2023-05-13 15:00",1.74838552748227,"Approved","OW475"
"2023-05-13 16:00",1.74738608156028,"Approved","OW475"
"2023-05-13 17:00",1.7453866356383,"Approved","OW475"
"2023-05-13 18:00",1.74138718971631,"Approved","OW475"
"2023-05-13 19:00",1.73838774379433,"Approved","OW475"
"2023-05-13 20:00",1.73538829787234,"Approved","OW475"
"2023-05-13 21:00",1.73038885195035,"Approved","OW475"
"2023-05-13 22:00",1.72838940602837,"Approved","OW475"
"2023-05-13 23:00",1.72538996010638,"Approved","OW475"
"2023-05-14 00:00",1.7223905141844,"Approved","OW475"
"2023-05-14 01:00",1.72039106826241,"Approved","OW475"
"2023-05-14 02:00",1.71939162234043,"Approved","OW475"
"2023-05-14 03:00",1.71739217641844,"Approved","OW475"
"2023-05-14 04:00",1.71839273049645,"Approved","OW475"
"2023-05-14 05:00",1.71839328457447,"Approved","OW475"
"2023-05-14 06:00",1.71739383865248,"Approved","OW475"
"2023-05-14 07:00",1.7163943927305,"Approved","OW475"
"2023-05-14 08:00",1.71539494680851,"Approved","OW475"
"2023-05-14 09:00",1.71339550088652,"Approved","OW475"
"2023-05-14 10:00",1.71139605496454,"Approved","OW475"
"2023-05-14 11:00",1.70939660904255,"Approved","OW475"
"2023-05-14 12:00",1.70539716312057,"Approved","OW475"
"2023-05-14 13:00",1.70139771719858,"Approved","OW475"
"2023-05-14 14:00",1.6983982712766,"Approved","OW475"
"2023-05-14 15:00",1.69339882535461,"Approved","OW475"
"2023-05-14 16:00",1.68639937943262,"Approved","OW475"
"2023-05-14 17:00",1.68039993351064,"Approved","OW475"
"2023-05-14 18:00",1.67340048758865,"Approved","OW475"
"2023-05-14 19:00",1.66640104166667,"Approved","OW475"
"2023-05-14 20:00",1.65940159574468,"Approved","OW475"
"2023-05-14 21:00",1.65240214982269,"Approved","OW475"
"2023-05-14 22:00",1.64640270390071,"Approved","OW475"
"2023-05-14 23:00",1.64140325797872,"Approved","OW475"
"2023-05-15 00:00",1.63740381205674,"Approved","OW475"
"2023-05-15 01:00",1.63140436613475,"Approved","OW475"
"2023-05-15 02:00",1.62840492021277,"Approved","OW475"
"2023-05-15 03:00",1.62540547429078,"Approved","OW475"
"2023-05-15 04:00",1.62340602836879,"Approved","OW475"
"2023-05-15 05:00",1.62140658244681,"Approved","OW475"
"2023-05-15 06:00",1.61740713652482,"Approved","OW475"
"2023-05-15 07:00",1.61340769060284,"Approved","OW475"
"2023-05-15 08:00",1.60840824468085,"Approved","OW475"
"2023-05-15 09:00",1.60140879875887,"Approved","OW475"
"2023-05-15 10:00",1.59440935283688,"Approved","OW475"
"2023-05-15 11:00",1.58740990691489,"Approved","OW475"
"2023-05-15 12:00",1.57841046099291,"Approved","OW475"
"2023-05-15 13:00",1.57141101507092,"Approved","OW475"
"2023-05-15 14:00",1.56341156914894,"Approved","OW475"
"2023-05-15 15:00",1.55641212322695,"Approved","OW475"
"2023-05-15 16:00",1.54741267730496,"Approved","OW475"
"2023-05-15 17:00",1.53841323138298,"Approved","OW475"
"2023-05-15 18:00",1.53041378546099,"Approved","OW475"
"2023-05-15 19:00",1.52241433953901,"Approved","OW475"
"2023-05-15 20:00",1.51541489361702,"Approved","OW475"
"2023-05-15 21:00",1.50941544769504,"Approved","OW475"
"2023-05-15 22:00",1.50441600177305,"Approved","OW475"
"2023-05-15 23:00",1.49941655585106,"Approved","OW475"
"2023-05-16 00:00",1.49541710992908,"Approved","OW475"
"2023-05-16 01:00",1.49241766400709,"Approved","OW475"
"2023-05-16 02:00",1.48941821808511,"Approved","OW475"
"2023-05-16 03:00",1.48741877216312,"Approved","OW475"
"2023-05-16 04:00",1.48741932624113,"Approved","OW475"
"2023-05-16 05:00",1.48641988031915,"Approved","OW475"
"2023-05-16 06:00",1.48542043439716,"Approved","OW475"
"2023-05-16 07:00",1.48242098847518,"Approved","OW475"
"2023-05-16 08:00",1.47742154255319,"Approved","OW475"
"2023-05-16 09:00",1.47342209663121,"Approved","OW475"
"2023-05-16 10:00",1.46742265070922,"Approved","OW475"
"2023-05-16 11:00",1.46142320478723,"Approved","OW475"
"2023-05-16 12:00",1.45542375886525,"Approved","OW475"
"2023-05-16 13:00",1.44942431294326,"Approved","OW475"
"2023-05-16 14:00",1.44442486702128,"Approved","OW475"
"2023-05-16 15:00",1.43742542109929,"Approved","OW475"
"2023-05-16 16:00",1.4304259751773,"Approved","OW475"
"2023-05-16 17:00",1.42442652925532,"Approved","OW475"
"2023-05-16 18:00",1.41742708333333,"Approved","OW475"
"2023-05-16 19:00",1.41042763741135,"Approved","OW475"
"2023-05-16 20:00",1.40442819148936,"Approved","OW475"
"2023-05-16 21:00",1.39842874556738,"Approved","OW475"
"2023-05-16 22:00",1.39342929964539,"Approved","OW475"
"2023-05-16 23:00",1.3884298537234,"Approved","OW475"
"2023-05-17 00:00",1.38443040780142,"Approved","OW475"
"2023-05-17 01:00",1.37943096187943,"Approved","OW475"
"2023-05-17 02:00",1.37943151595745,"Approved","OW475"
"2023-05-17 03:00",1.37843207003546,"Approved","OW475"
"2023-05-17 04:00",1.37943262411348,"Approved","OW475"
"2023-05-17 05:00",1.37943317819149,"Approved","OW475"
"2023-05-17 06:00",1.3784337322695,"Approved","OW475"
"2023-05-17 07:00",1.37643428634752,"Approved","OW475"
"2023-05-17 08:00",1.37343484042553,"Approved","OW475"
"2023-05-17 09:00",1.36943539450355,"Approved","OW475"
"2023-05-17 10:00",1.36343594858156,"Approved","OW475"
"2023-05-17 11:00",1.35743650265957,"Approved","OW475"
"2023-05-17 12:00",1.35143705673759,"Approved","OW475"
"2023-05-17 13:00",1.3454376108156,"Approved","OW475"
"2023-05-17 14:00",1.34043816489362,"Approved","OW475"
"2023-05-17 15:00",1.33443871897163,"Approved","OW475"
"2023-05-17 16:00",1.32743927304965,"Approved","OW475"
"2023-05-17 17:00",1.32043982712766,"Approved","OW475"
"2023-05-17 18:00",1.31244038120567,"Approved","OW475"
"2023-05-17 19:00",1.30644093528369,"Approved","OW475"
"2023-05-17 20:00",1.3004414893617,"Approved","OW475"
"2023-05-17 21:00",1.29544204343972,"Approved","OW475"
"2023-05-17 22:00",1.29044259751773,"Approved","OW475"
"2023-05-17 23:00",1.28744315159574,"Approved","OW475"
"2023-05-18 00:00",1.28344370567376,"Approved","OW475"
"2023-05-18 01:00",1.28144425975177,"Approved","OW475"
"2023-05-18 02:00",1.27944481382979,"Approved","OW475"
"2023-05-18 03:00",1.2794453679078,"Approved","OW475"
"2023-05-18 04:00",1.28044592198582,"Approved","OW475"
"2023-05-18 05:00",1.28044647606383,"Approved","OW475"
"2023-05-18 06:00",1.27944703014184,"Approved","OW475"
"2023-05-18 07:00",1.27844758421986,"Approved","OW475"
"2023-05-18 08:00",1.27544813829787,"Approved","OW475"
"2023-05-18 09:00",1.27144869237589,"Approved","OW475"
"2023-05-18 10:00",1.2684492464539,"Approved","OW475"
"2023-05-18 11:00",1.26344980053191,"Approved","OW475"
"2023-05-18 12:00",1.25945035460993,"Approved","OW475"
"2023-05-18 13:00",1.25445090868794,"Approved","OW475"
"2023-05-18 14:00",1.25045146276596,"Approved","OW475"
"2023-05-18 15:00",1.24745201684397,"Approved","OW475"
"2023-05-18 16:00",1.24345257092199,"Approved","OW475"
"2023-05-18 17:00",1.238453125,"Approved","OW475"
"2023-05-18 18:00",1.23445367907801,"Approved","OW475"
"2023-05-18 19:00",1.23045423315603,"Approved","OW475"
"2023-05-18 20:00",1.22745478723404,"Approved","OW475"
"2023-05-18 21:00",1.22545534131206,"Approved","OW475"
"2023-05-18 22:00",1.22445589539007,"Approved","OW475"
"2023-05-18 23:00",1.22345644946809,"Approved","OW475"
"2023-05-19 00:00",1.2224570035461,"Approved","OW475"
"2023-05-19 01:00",1.22445755762411,"Approved","OW475"
"2023-05-19 02:00",1.22745811170213,"Approved","OW475"
"2023-05-19 03:00",1.23045866578014,"Approved","OW475"
"2023-05-19 04:00",1.23345921985816,"Approved","OW475"
"2023-05-19 05:00",1.23745977393617,"Approved","OW475"
"2023-05-19 06:00",1.23946032801418,"Approved","OW475"
"2023-05-19 07:00",1.2404608820922,"Approved","OW475"
"2023-05-19 08:00",1.24146143617021,"Approved","OW475"
"2023-05-19 09:00",1.24246199024823,"Approved","OW475"
"2023-05-19 10:00",1.24146254432624,"Approved","OW475"
"2023-05-19 11:00",1.24046309840426,"Approved","OW475"
"2023-05-19 12:00",1.23846365248227,"Approved","OW475"
"2023-05-19 13:00",1.23646420656028,"Approved","OW475"
"2023-05-19 14:00",1.2344647606383,"Approved","OW475"
"2023-05-19 15:00",1.23146531471631,"Approved","OW475"
"2023-05-19 16:00",1.22846586879433,"Approved","OW475"
"2023-05-19 17:00",1.22346642287234,"Approved","OW475"
"2023-05-19 18:00",1.22046697695035,"Approved","OW475"
"2023-05-19 19:00",1.21746753102837,"Approved","OW475"
"2023-05-19 20:00",1.21446808510638,"Approved","OW475"
"2023-05-19 21:00",1.2114686391844,"Approved","OW475"
"2023-05-19 22:00",1.21146919326241,"Approved","OW475"
"2023-05-19 23:00",1.20946974734043,"Approved","OW475"
"2023-05-20 00:00",1.20947030141844,"Approved","OW475"
"2023-05-20 01:00",1.20947085549645,"Approved","OW475"
"2023-05-20 02:00",1.21047140957447,"Approved","OW475"
"2023-05-20 03:00",1.21247196365248,"Approved","OW475"
"2023-05-20 04:00",1.2134725177305,"Approved","OW475"
"2023-05-20 05:00",1.21647307180851,"Approved","OW475"
"2023-05-20 06:00",1.21847362588652,"Approved","OW475"
"2023-05-20 07:00",1.21947417996454,"Approved","OW475"
"2023-05-20 08:00",1.21947473404255,"Approved","OW475"
"2023-05-20 09:00",1.21847528812057,"Approved","OW475"
"2023-05-20 10:00",1.21747584219858,"Approved","OW475"
"2023-05-20 11:00",1.2154763962766,"Approved","OW475"
"2023-05-20 12:00",1.21247695035461,"Approved","OW475"
"2023-05-20 13:00",1.20947750443262,"Approved","OW475"
"2023-05-20 14:00",1.20547805851064,"Approved","OW475"
"2023-05-20 15:00",1.20347861258865,"Approved","OW475"
"2023-05-20 16:00",1.20147916666667,"Approved","OW475"
"2023-05-20 17:00",1.19847972074468,"Approved","OW475"
"2023-05-20 18:00",1.1974802748227,"Approved","OW475"
"2023-05-20 19:00",1.19648082890071,"Approved","OW475"
"2023-05-20 20:00",1.19648138297872,"Approved","OW475"
"2023-05-20 21:00",1.19648193705674,"Approved","OW475"
"2023-05-20 22:00",1.19748249113475,"Approved","OW475"
"2023-05-20 23:00",1.19848304521277,"Approved","OW475"
"2023-05-21 00:00",1.20048359929078,"Approved","OW475"
"2023-05-21 01:00",1.20248415336879,"Approved","OW475"
"2023-05-21 02:00",1.20548470744681,"Approved","OW475"
"2023-05-21 03:00",1.20848526152482,"Approved","OW475"
"2023-05-21 04:00",1.21248581560284,"Approved","OW475"
"2023-05-21 05:00",1.21648636968085,"Approved","OW475"
"2023-05-21 06:00",1.21948692375887,"Approved","OW475"
"2023-05-21 07:00",1.22248747783688,"Approved","OW475"
"2023-05-21 08:00",1.22448803191489,"Approved","OW475"
"2023-05-21 09:00",1.22548858599291,"Approved","OW475"
"2023-05-21 10:00",1.22448914007092,"Approved","OW475"
"2023-05-21 11:00",1.22348969414894,"Approved","OW475"
"2023-05-21 12:00",1.22149024822695,"Approved","OW475"
"2023-05-21 13:00",1.22049080230496,"Approved","OW475"
"2023-05-21 14:00",1.21849135638298,"Approved","OW475"
"2023-05-21 15:00",1.21649191046099,"Approved","OW475"
"2023-05-21 16:00",1.21649246453901,"Approved","OW475"
"2023-05-21 17:00",1.21649301861702,"Approved","OW475"
"2023-05-21 18:00",1.21649357269504,"Approved","OW475"
"2023-05-21 19:00",1.21749412677305,"Approved","OW475"
"2023-05-21 20:00",1.21849468085106,"Approved","OW475"
"2023-05-21 21:00",1.21849523492908,"Approved","OW475"
"2023-05-21 22:00",1.22149578900709,"Approved","OW475"
"2023-05-21 23:00",1.22349634308511,"Approved","OW475"
"2023-05-22 00:00",1.22649689716312,"Approved","OW475"
"2023-05-22 01:00",1.22849745124113,"Approved","OW475"
"2023-05-22 02:00",1.23249800531915,"Approved","OW475"
"2023-05-22 03:00",1.23649855939716,"Approved","OW475"
"2023-05-22 04:00",1.24149911347518,"Approved","OW475"
"2023-05-22 05:00",1.24549966755319,"Approved","OW475"
"2023-05-22 06:00",1.25150022163121,"Approved","OW475"
"2023-05-22 07:00",1.25550077570922,"Approved","OW475"
"2023-05-22 08:00",1.25950132978723,"Approved","OW475"
"2023-05-22 09:00",1.26150188386525,"Approved","OW475"
"2023-05-22 10:00",1.26350243794326,"Approved","OW475"
"2023-05-22 11:00",1.26650299202128,"Approved","OW475"
"2023-05-22 12:00",1.26650354609929,"Approved","OW475"
"2023-05-22 13:00",1.2665041001773,"Approved","OW475"
"2023-05-22 14:00",1.26550465425532,"Approved","OW475"
"2023-05-22 15:00",1.26550520833333,"Approved","OW475"
"2023-05-22 16:00",1.26550576241135,"Approved","OW475"
"2023-05-22 17:00",1.26550631648936,"Approved","OW475"
"2023-05-22 18:00",1.26650687056738,"Approved","OW475"
"2023-05-22 19:00",1.26850742464539,"Approved","OW475"
"2023-05-22 20:00",1.2685079787234,"Approved","OW475"
"2023-05-22 21:00",1.26850853280142,"Approved","OW475"
"2023-05-22 22:00",1.27050908687943,"Approved","OW475"
"2023-05-22 23:00",1.27150964095745,"Approved","OW475"
"2023-05-23 00:00",1.27351019503546,"Approved","OW475"
"2023-05-23 01:00",1.27651074911348,"Approved","OW475"
"2023-05-23 02:00",1.27951130319149,"Approved","OW475"
"2023-05-23 03:00",1.2835118572695,"Approved","OW475"
"2023-05-23 04:00",1.28751241134752,"Approved","OW475"
"2023-05-23 05:00",1.29251296542553,"Approved","OW475"
"2023-05-23 06:00",1.29651351950355,"Approved","OW475"
"2023-05-23 07:00",1.30151407358156,"Approved","OW475"
"2023-05-23 08:00",1.30551462765957,"Approved","OW475"
"2023-05-23 09:00",1.30951518173759,"Approved","OW475"
"2023-05-23 10:00",1.3135157358156,"Approved","OW475"
"2023-05-23 11:00",1.31751628989362,"Approved","OW475"
"2023-05-23 12:00",1.32051684397163,"Approved","OW475"
"2023-05-23 13:00",1.32351739804965,"Approved","OW475"
"2023-05-23 14:00",1.32551795212766,"Approved","OW475"
"2023-05-23 15:00",1.32851850620567,"Approved","OW475"
"2023-05-23 16:00",1.33151906028369,"Approved","OW475"
"2023-05-23 17:00",1.3335196143617,"Approved","OW475"
"2023-05-23 18:00",1.33652016843972,"Approved","OW475"
"2023-05-23 19:00",1.33852072251773,"Approved","OW475"
"2023-05-23 20:00",1.34252127659574,"Approved","OW475"
"2023-05-23 21:00",1.34452183067376,"Approved","OW475"
"2023-05-23 22:00",1.34752238475177,"Approved","OW475"
"2023-05-23 23:00",1.35152293882979,"Approved","OW475"
"2023-05-24 00:00",1.3535234929078,"Approved","OW475"
"2023-05-24 01:00",1.35752404698582,"Approved","OW475"
"2023-05-24 02:00",1.36152460106383,"Approved","OW475"
"2023-05-24 03:00",1.36452515514184,"Approved","OW475"
"2023-05-24 04:00",1.36952570921986,"Approved","OW475"
"2023-05-24 05:00",1.37452626329787,"Approved","OW475"
"2023-05-24 06:00",1.37952681737589,"Approved","OW475"
"2023-05-24 07:00",1.3845273714539,"Approved","OW475"
"2023-05-24 08:00",1.39052792553191,"Approved","OW475"
"2023-05-24 09:00",1.39652847960993,"Approved","OW475"
"2023-05-24 10:00",1.40352903368794,"Approved","OW475"
"2023-05-24 11:00",1.40952958776596,"Approved","OW475"
"2023-05-24 12:00",1.41553014184397,"Approved","OW475"
"2023-05-24 13:00",1.42153069592199,"Approved","OW475"
"2023-05-24 14:00",1.42753125,"Approved","OW475"
"2023-05-24 15:00",1.43353180407801,"Approved","OW475"
"2023-05-24 16:00",1.43753235815603,"Approved","OW475"
"2023-05-24 17:00",1.44153291223404,"Approved","OW475"
"2023-05-24 18:00",1.44553346631206,"Approved","OW475"
"2023-05-24 19:00",1.44953402039007,"Approved","OW475"